Regional Weather Roundup
Issued by NWS

Home | Current Version | Previous Version | Text Only | Print | Product List | Glossary On
Versions: 1 2 3 4 5 6 7 8 9 10 11 12 13 14 15 16 17 18 19 20 21 22 23 24 25 26 27 28 29 30 31 32 33 34 35 36 37 38 39 40 41 42 43 44 45 46 47 48 49 50
000
ASUS43 KMKX 211100
RWRWI

WISCONSIN REGIONAL WEATHER ROUNDUP
NATIONAL WEATHER SERVICE MILWAUKEE/SULLIVAN WI
500 AM CST SUN JAN 21 2018

NOTE: "FAIR" INDICATES FEW OR NO CLOUDS BELOW 12,000 FEET WITH NO
SIGNIFICANT WEATHER AND/OR OBSTRUCTIONS TO VISIBILITY.

WIZ001-002-006>008-014>016-023>028-211200-
NORTHWEST WISCONSIN

CITY           SKY/WX    TMP DP  RH WIND       PRES   REMARKS
SUPERIOR ARPT  FAIR      27  25  94 SW3       29.97R
ASHLAND        FAIR      29  27  92 SW3       29.96R
HAYWARD        FAIR      26  23  88 CALM      29.94F
SIREN          CLOUDY    28  27  96 CALM      29.96R FOG
CUMBERLAND     CLOUDY    32  28  86 CALM      29.94S
RICE LAKE      MOCLDY    31  30  96 CALM      29.95F FOG
CHETEK         CLOUDY    28  28 100 CALM      29.95S
LADYSMITH      CLOUDY    31  30  94 CALM      29.95S FOG
EAU CLAIRE     CLOUDY    28  27  96 CALM      29.95R FOG
MENOMONIE      CLOUDY    30  29  96 CALM      29.96S FOG
NEW RICHMOND   CLOUDY    31  30  96 CALM      29.95F
OSCEOLA        CLOUDY    31  31 100 CALM      29.98S
$$

WIZ003>005-009-010-017-018-211200-
NORTH CENTRAL WISCONSIN

CITY           SKY/WX    TMP DP  RH WIND       PRES   REMARKS
MANITOWISH WTR MOCLDY    23  23 100 CALM      29.92S
ARBOR VITAE    FAIR      29  28  95 CALM      29.92S FOG
WOODRUFF       FAIR      29  28  95 CALM      29.92S FOG
RHINELANDER    CLOUDY    32  30  92 CALM      29.92S
EAGLE RIVER    FAIR      26  26 100 CALM      29.91F FOG
LAND O LAKES   CLOUDY    25  24  98 CALM      29.93S
PHILLIPS       CLOUDY    29  29 100 CALM      29.91F
TOMAHAWK       CLOUDY    30  28  94 CALM      29.92F
MEDFORD        CLOUDY    29  28  94 CALM      29.91F FOG
MERRILL        MOCLDY    29  29  99 CALM      29.93S FOG
$$

WIZ029-030-035-036-043>047-211200-
CENTRAL WISCONSIN

CITY           SKY/WX    TMP DP  RH WIND       PRES   REMARKS
WAUSAU         FAIR      29  28  96 CALM      29.91F FOG
MOSINEE        FAIR      30  28  93 CALM      29.93F
MARSHFIELD     FAIR      27  26  96 CALM      29.91F FOG
STEVENS POINT  FAIR      24  24 100 CALM      29.94S FOG
WAUPACA        FAIR      26  24  91 CALM      29.95S FOG
WAUTOMA        FAIR      22  20  92 CALM      29.95S FOG
WISC RAPIDS    FOG       23  20  88 CALM      29.95R VSB 1/4
CAMP DOUGLAS   FAIR      20  20  98 CALM      29.93F VSB 3/8
$$

WIZ011>013-019>022-031-037>040-048>050-211200-
NORTHEAST WISCONSIN

CITY           SKY/WX    TMP DP  RH WIND       PRES   REMARKS
ANTIGO         CLOUDY    28  28  98 CALM      29.92F
SHAWANO        MOCLDY    31  29  92 CALM      29.95S
OCONTO         MOCLDY    29  28  94 CALM      29.95F
STURGEON BAY   CLOUDY    30  28  92 CALM      29.96F
GREEN BAY      FAIR      29  27  92 CALM      29.95S FOG
MANITOWOC      FAIR      25  24  96 S5        29.97S FOG     WCI  19
APPLETON       FAIR      30  28  93 CALM      29.93S FOG
CLINTONVILLE   FAIR      27  27 100 N3        29.94S FOG
OSHKOSH        FAIR      26  24  92 CALM      29.94S FOG
$$

WIZ032>034-041-042-053>061-211200-
SOUTHWEST WISCONSIN

CITY           SKY/WX    TMP DP  RH WIND       PRES   REMARKS
LA CROSSE      FOG       21  20  96 NW5       29.95S VSB 1/4 WCI  15
SPARTA         FAIR      20  19  97 CALM      29.95S
VIROQUA        FAIR      29  29 100 NE5       29.91F WCI  24
BOSCOBEL       FAIR      23  21  92 CALM      29.96S FOG
PRAIRIE DU CHI FAIR      26  24  95 SE3       29.95S FOG
PLATTEVILLE    FAIR      33  33 100 NE5       29.94S WCI  28
$$

WIZ056-057-062-063-064-067-068-211200-
SOUTH CENTRAL WISCONSIN

CITY           SKY/WX    TMP DP  RH WIND       PRES   REMARKS
REEDSBURG      FAIR      23  23 100 CALM      29.93F
BARABOO/DELLS  FOG       26  25  98 CALM      29.93S VSB 1/2
LONE ROCK      NOT AVBL
MINERAL POINT  FOG       32  32 100 CALM      29.94S VSB 1/2
MADISON        FOG       24  23  96 CALM      29.95S VSB 1/4
MIDDLETON      MOCLDY    28  28 100 CALM      29.95R
WATERTOWN      MOCLDY    26  26 100 CALM      29.95R FOG
MONROE         CLOUDY    32  32 100 CALM      29.93F FOG
JANESVILLE     CLOUDY    32  32 100 E3        29.94F FOG
$$

WIZ051-052-058>065-066-070>072-211200-
SOUTHEAST WISCONSIN

CITY           SKY/WX    TMP DP  RH WIND       PRES   REMARKS
MILWAUKEE      FOG       30  30 100 CALM      29.97R VSB 1/4
WAUKESHA       CLOUDY    32  32 100 S3        29.97S FOG
MILWAUKEE/TIMM CLOUDY    32  30  93 CALM      29.98R FOG
RACINE         CLOUDY    38  35  89 S5        29.98S FOG     WCI  34
BURLINGTON     CLOUDY    33  32  96 S3        29.96S FOG
KENOSHA        CLOUDY    38  35  89 S3        29.97S FOG
FOND DU LAC    FAIR      25  22  88 S5        29.95R FOG     WCI  19
SHEBOYGAN      FAIR      24  24 100 CALM      29.96S FOG
WEST BEND      FAIR      27  27 100 CALM      29.96R FOG
JUNEAU         FOG       28  28  99 CALM      29.95F VSB<1/4
$$

LSZ147-162-211200-
LAKE SUPERIOR

STATION/POSITION TIME  TEMP    WIND        PRES    WAVE
                       AIR SEA DIR/SP/G            HT/PER
                 (UTC) (F)     (DEG/KT/KT) (MB)    (FT/S)
DEVILS ISLAND    1000   30      60/  3/  3 1015.5R
SAXON HARBOR     1040   28     210/  2/  3 1014.2R
$$

LMZ867-665-643>646-211200-
LAKE MICHIGAN

STATION/POSITION TIME  TEMP    WIND        PRES    WAVE
                       AIR SEA DIR/SP/G            HT/PER
                 (UTC) (F)     (DEG/KT/KT) (MB)    (FT/S)
NORTHPORT PIER   1040   33        CALM     1014.6S
KEWAUNEE LAKESHO 1030   28     300/  2/  2 1013.7F
SHEBOYGAN LAKESH 1000   34     200/  3/  3 1015.1F
PORT WASHINGTON  1040   30     280/  2/  3 1015.9R
MILWAUKEE LAKESH 1030   34        CALM       N/A
KENOSHA   LAKESH 1000   34     190/  8/  9 1015.2
$$

TC  - TEMPERATURE IN CELSIUS
VSB - VISIBILITY IN STATUTE MILES
WCI - WIND CHILL INDEX
HX  - HEAT INDEX





USA.gov is the U.S. government's official web portal to all federal, state and local government web resources and services.